Location: Newark
(36.0797°N, 3.9744°E)
Time: 14:20:10
(UTC+00:00)

Vanguard 2 - All Passes

Search period start: 10 December 2019 00:00
Search period end: 20 December 2019 00:00
Orbit: 553 x 2938 km, 32.9° (Epoch: 09 December)

Date Brightness Start Highest point End Pass type
(mag) Time Alt. Az. Time Alt. Az. Time Alt. Az.
10 Dec - 01:30:43 10° WSW 01:46:31 69° SSE 02:04:00 10° E visible
10 Dec - 03:41:49 10° W 03:59:43 80° S 04:15:22 10° E visible
10 Dec - 05:54:48 10° W 06:12:12 63° SSW 06:24:47 10° SE visible
10 Dec - 08:09:37 10° W 08:21:58 30° SW 08:30:53 10° SSE daylight
10 Dec - 21:36:44 10° SSE 21:43:40 17° SE 21:51:58 10° E night (unlit)
10 Dec - 23:39:56 10° SW 23:52:45 48° SSE 00:09:15 10° E visible
11 Dec - 01:48:35 10° WSW 02:04:39 75° SSE 02:22:12 10° E visible
11 Dec - 04:00:01 10° W 04:17:57 78° S 04:33:25 10° ESE visible
11 Dec - 06:13:09 10° W 06:30:03 55° SSW 06:42:19 10° SE visible
11 Dec - 08:28:57 10° W 08:39:15 22° SW 08:47:09 10° S daylight
11 Dec - 21:52:08 10° S 22:00:54 23° SE 22:12:09 10° E night (unlit)
11 Dec - 23:57:16 10° SW 00:10:29 56° SSE 00:27:40 10° E visible
12 Dec - 02:06:34 10° WSW 02:22:52 78° S 02:40:23 10° E visible
12 Dec - 04:18:15 10° W 04:36:08 75° SSW 04:51:22 10° ESE visible
12 Dec - 06:31:35 10° W 06:47:45 47° SSW 06:59:40 10° SE daylight
12 Dec - 08:49:17 10° W 08:56:27 15° SW 09:02:26 10° SSW daylight
12 Dec - 22:08:26 10° SSW 22:18:12 31° SE 22:31:26 10° E night (unlit)
13 Dec - 00:14:50 10° SW 00:28:21 64° SSE 00:45:59 10° E visible
13 Dec - 02:24:37 10° W 02:41:07 80° S 02:58:33 10° E visible
13 Dec - 04:36:29 10° W 04:54:15 69° SSW 05:09:13 10° ESE visible
13 Dec - 06:50:11 10° W 07:05:17 38° SW 07:16:42 10° SSE daylight
13 Dec - 22:25:13 10° SSW 22:35:37 39° SE 22:50:15 10° E night (unlit)
14 Dec - 00:32:33 10° WSW 00:46:21 71° SSE 01:04:16 10° E visible
14 Dec - 02:42:44 10° W 02:59:22 80° S 03:16:41 10° E visible
14 Dec - 04:54:44 10° W 05:12:14 62° SSW 05:26:54 10° SE visible
14 Dec - 07:09:05 10° W 07:22:43 30° SW 07:33:22 10° SSE daylight
14 Dec - 20:39:23 10° SSE 20:44:50 15° SE 20:51:28 10° E night (unlit)
14 Dec - 22:42:21 10° SW 22:53:09 48° SSE 23:08:49 10° E visible
15 Dec - 00:50:24 10° WSW 01:04:28 76° SSE 01:22:33 10° E visible
15 Dec - 03:00:52 10° W 03:17:37 77° S 03:34:46 10° ESE visible
15 Dec - 05:13:02 10° W 05:30:06 54° SSW 05:44:23 10° SE visible
15 Dec - 07:28:30 10° W 07:40:03 23° SW 07:49:29 10° S daylight
15 Dec - 20:54:53 10° S 21:02:00 22° SE 21:11:35 10° E night (unlit)
15 Dec - 22:59:45 10° SW 23:10:51 57° SSE 23:27:14 10° E visible
16 Dec - 01:08:21 10° WSW 01:22:39 79° S 01:40:47 10° E visible
16 Dec - 03:19:01 10° W 03:35:48 73° SSW 03:52:45 10° ESE visible
16 Dec - 05:31:28 10° W 05:47:50 46° SW 06:01:38 10° SSE visible
16 Dec - 07:48:58 10° W 07:57:19 16° SW 08:04:35 10° SSW daylight
16 Dec - 21:11:17 10° SSW 21:19:16 30° SE 21:30:48 10° E night (unlit)
16 Dec - 23:17:20 10° WSW 23:28:43 65° SSE 23:45:35 10° E visible
17 Dec - 01:26:22 10° W 01:40:53 80° S 01:59:02 10° E visible
17 Dec - 03:37:11 10° W 03:53:54 67° SSW 04:10:35 10° ESE visible
17 Dec - 05:50:05 10° W 06:05:26 37° SW 06:18:35 10° SSE visible
17 Dec - 21:28:10 10° SSW 21:36:41 38° SE 21:49:34 10° E night (unlit)
17 Dec - 23:35:05 10° WSW 23:46:41 71° SSE 00:03:55 10° E visible
18 Dec - 01:44:25 10° W 01:59:07 79° S 02:17:13 10° ESE visible
18 Dec - 03:55:23 10° W 04:11:54 60° SSW 04:28:14 10° SE visible
18 Dec - 06:09:01 10° W 06:22:57 30° SW 06:35:05 10° S visible
18 Dec - 19:42:46 10° SSE 19:46:32 13° SE 19:51:01 10° ESE visible
18 Dec - 21:45:23 10° SW 21:54:13 47° SSE 22:08:06 10° E night (unlit)
18 Dec - 23:52:56 10° WSW 00:04:46 76° S 00:22:14 10° E visible
19 Dec - 02:02:29 10° W 02:17:19 75° S 02:35:19 10° ESE visible
19 Dec - 04:13:39 10° W 04:29:48 52° SSW 04:45:39 10° SE visible
19 Dec - 06:28:33 10° W 06:40:24 22° SW 06:50:58 10° S daylight
19 Dec - 19:58:10 10° S 20:03:42 20° SE 20:11:11 10° E visible
19 Dec - 22:02:50 10° SW 22:11:54 57° SSE 22:26:31 10° E night (unlit)
